CST,Max TemperatureF,Mean TemperatureF,Min TemperatureF,Max Dew PointF,MeanDew PointF,Min DewpointF,Max Humidity, Mean Humidity, Min Humidity, Max Sea Level PressureIn, Mean Sea Level PressureIn, Min Sea Level PressureIn, Max VisibilityMiles, Mean VisibilityMiles, Min VisibilityMiles, Max Wind SpeedMPH, Mean Wind SpeedMPH, Max Gust SpeedMPH,PrecipitationIn, CloudCover, Events, WindDirDegrees
2013-11-1,76,62,48,48,46,42,86,61,35,30.09,29.88,29.81,10,10,10,21,8,28,0.00,1,,238
2013-11-2,68,59,50,42,36,31,68,46,24,30.29,30.20,30.09,10,10,10,21,9,27,0.00,0,,343
2013-11-3,67,56,45,45,39,35,71,54,36,30.20,30.11,29.98,10,10,10,23,11,29,T,4,Rain,151
2013-11-4,61,59,56,59,54,47,97,79,60,30.08,30.04,29.98,10,7,2,20,11,25,0.57,8,Rain,142
2013-11-5,71,66,61,67,63,59,97,89,81,30.04,29.98,29.92,10,6,0,21,11,26,0.24,8,Rain,145
2013-11-6,72,58,44,68,49,37,93,70,46,30.36,30.15,29.94,10,9,2,25,15,30,0.40,5,Rain,325
2013-11-7,65,52,39,41,37,35,79,58,36,30.51,30.42,30.37,10,10,9,9,5,12,0.00,5,,351
2013-11-8,66,54,42,44,40,35,89,62,34,30.38,30.25,30.12,10,10,10,18,9,22,T,7,Rain,188
2013-11-9,70,63,56,52,48,42,67,60,53,30.21,30.14,30.09,10,10,10,23,11,27,T,7,,159
2013-11-10,65,58,51,49,47,45,72,64,56,30.33,30.27,30.21,10,10,10,9,4,11,0.00,5,,132
2013-11-11,76,63,50,53,49,44,83,64,44,30.28,30.22,30.16,10,10,7,8,3,8,0.00,2,,158
2013-11-12,64,50,36,55,31,17,83,55,26,30.69,30.55,30.28,10,10,7,28,17,35,0.00,3,,3
2013-11-13,52,41,29,26,22,19,72,50,28,30.69,30.56,30.37,10,10,10,13,4,17,0.00,0,,94
2013-11-14,61,47,33,46,32,26,76,52,27,30.36,30.17,30.00,10,10,6,18,11,22,0.00,6,,172
2013-11-15,72,62,51,58,52,46,93,70,47,29.99,29.91,29.83,10,9,6,18,10,24,0.00,5,,171
2013-11-16,80,72,63,68,62,58,87,73,58,29.84,29.75,29.65,10,10,10,29,18,35,0.00,6,,184
2013-11-17,87,75,62,68,54,34,90,57,23,30.00,29.79,29.67,10,10,10,25,13,30,0.00,2,,279
2013-11-18,72,64,55,36,30,26,38,29,19,30.18,30.12,30.01,10,10,10,16,9,20,0.00,6,,59
2013-11-19,69,62,55,38,33,30,44,34,23,30.17,30.08,30.00,10,10,10,23,12,27,0.00,4,,128
2013-11-20,66,57,48,55,43,34,72,58,43,30.01,29.95,29.89,10,10,7,22,12,27,T,6,Rain,155
2013-11-21,75,59,42,68,60,38,93,86,79,30.21,30.00,29.93,10,6,1,30,11,36,0.14,8,Rain-Thunderstorm,134
2013-11-22,42,39,35,37,33,31,92,84,76,30.45,30.38,30.22,10,5,2,30,18,35,0.23,8,Rain,349
2013-11-23,43,40,36,35,32,23,92,73,54,30.55,30.50,30.43,10,7,1,22,16,29,T,8,Rain,8
2013-11-24,37,35,33,26,23,19,70,62,54,30.58,30.49,30.35,10,10,7,24,11,28,0.02,7,Rain,30
2013-11-25,39,36,32,34,32,25,92,78,64,30.34,30.24,30.16,10,8,3,18,7,22,0.52,8,Rain,50
2013-11-26,53,45,36,34,31,23,92,65,38,30.38,30.21,30.14,10,8,3,30,18,36,T,5,Rain,345
2013-11-27,47,38,29,23,17,13,69,48,26,30.48,30.40,30.35,10,10,10,25,9,29,0.00,2,,353
2013-11-28,52,41,29,28,23,18,63,47,30,30.45,30.40,30.35,10,10,10,10,8,,0.00,4,,166
2013-11-29,59,45,31,38,32,25,85,64,43,30.51,30.43,30.34,10,10,9,14,7,18,0.00,2,,154
2013-11-30,68,53,38,50,44,35,89,73,56,30.34,30.24,30.14,10,10,10,23,10,29,0.00,4,,175